Weather History for KLSB - February, 2014

Change the Weather History Date:

Wednesday, February 19, 2014

  Actual Average Record
Temperature  
Mean Temperature 52 °F -  
Max Temperature 71 °F 64 °F 73 °F (2015)
Min Temperature 33 °F 28 °F 32 °F (2013)
Degree Days  
Heating Degree Days 13    
Growing Degree Days 2 (Base 50)    
Moisture  
Dew Point 14 °F    
Average Humidity 22    
Maximum Humidity 36    
Minimum Humidity 11    
Precipitation  
Precipitation 0.00 in - - ()
Sea Level Pressure  
Sea Level Pressure 29.93 in    
Wind  
Wind Speed 5 mph (West)    
Max Wind Speed 20 mph    
Max Gust Speed 28 mph    
Visibility 10 miles    
Events      
Averages and records for this station are not official NWS values.
T = Trace of Precipitation, MM = Missing Value Source: NWS Daily Summary

Daily Weather History Graph

Daily Weather History Graph

Search for Another Location

Airport or City:

Trip Planner

Search our weather history database for the weather conditions in past years. The results will help you decide how hot, cold, wet, or windy it might be!

Date:

Astronomy

Feb. 19, 2014 Rise Set
Actual Time 6:53 AM MST 6:04 PM MST
Civil Twilight 6:28 AM MST 6:29 PM MST
Nautical Twilight 5:59 AM MST 6:57 PM MST
Astronomical Twilight 5:31 AM MST 7:26 PM MST
Moon 10:41 PM MST (2/19) 9:18 AM MST (2/19)
Length of Visible Light 12h 00m
Length of Day
11h 11m
Waning Gibbous, 79% of the Moon is Illuminated
Feb 19
Waning Gibbous
Feb 22
Last Quarter
Mar 1
New
Mar 8
First Quarter
Mar 16
Full

Hourly Weather History & Observations

Time (MST) Temp. Windchill Dew Point Humidity Pressure Visibility Wind Dir Wind Speed Gust Speed Precip Events Conditions
12:15 AM 41.0 °F - 10.4 °F 29% 30.01 in 10.0 mi Calm Calm - N/A   Clear
12:35 AM 42.8 °F - 12.2 °F 29% 30.01 in 10.0 mi Calm Calm - N/A   Clear
12:55 AM 39.2 °F - 10.4 °F 31% 30.01 in 10.0 mi Calm Calm - N/A   Clear
1:15 AM 41.0 °F 37.1 °F 10.4 °F 29% 30.00 in 10.0 mi ESE 5.8 mph - N/A   Clear
1:35 AM 39.2 °F 35.0 °F 10.4 °F 31% 30.00 in 10.0 mi SSE 5.8 mph - N/A   Clear
1:55 AM 41.0 °F 39.0 °F 10.4 °F 29% 30.00 in 10.0 mi South 3.5 mph - N/A   Clear
2:15 AM 42.8 °F - 12.2 °F 29% 30.00 in 10.0 mi Calm Calm - N/A   Clear
2:35 AM 41.0 °F - 10.4 °F 29% 29.99 in 10.0 mi Calm Calm - N/A   Clear
2:55 AM 41.0 °F - 10.4 °F 29% 29.99 in 10.0 mi Calm Calm - N/A   Clear
3:15 AM 37.4 °F - 8.6 °F 30% 29.98 in 10.0 mi Calm Calm - N/A   Clear
3:35 AM 37.4 °F - 10.4 °F 33% 29.98 in 10.0 mi Calm Calm - N/A   Clear
3:55 AM 41.0 °F - 12.2 °F 31% 29.97 in 10.0 mi Calm Calm - N/A   Clear
4:15 AM 39.2 °F - 12.2 °F 33% 29.97 in 10.0 mi Calm Calm - N/A   Clear
4:35 AM 37.4 °F - 10.4 °F 33% 29.97 in 10.0 mi Calm Calm - N/A   Clear
4:55 AM 39.2 °F - 10.4 °F 31% 29.97 in 10.0 mi Calm Calm - N/A   Clear
5:15 AM 41.0 °F - 12.2 °F 31% 29.97 in 10.0 mi Calm Calm - N/A   Clear
5:55 AM 41.0 °F - 12.2 °F 31% 29.97 in 10.0 mi Calm Calm - N/A   Clear
6:15 AM 42.8 °F - 12.2 °F 29% 29.97 in 10.0 mi Calm Calm - N/A   Clear
6:35 AM 37.4 °F - 12.2 °F 36% 29.97 in 10.0 mi Calm Calm - N/A   Clear
6:55 AM 37.4 °F - 10.4 °F 33% 29.98 in 10.0 mi Calm Calm - N/A   Clear
7:15 AM 37.4 °F - 12.2 °F 36% 29.98 in 10.0 mi Calm Calm - N/A   Clear
7:35 AM 33.8 °F - 8.6 °F 35% 29.98 in 10.0 mi Calm Calm - N/A   Clear
7:55 AM 42.8 °F - 12.2 °F 29% 29.98 in 10.0 mi Calm Calm - N/A   Clear
8:15 AM 48.2 °F - 15.8 °F 27% 29.99 in 10.0 mi Calm Calm - N/A   Clear
8:35 AM 53.6 °F - 15.8 °F 22% 29.99 in 10.0 mi Calm Calm - N/A   Clear
8:55 AM 53.6 °F - 17.6 °F 24% 29.98 in 10.0 mi Calm Calm - N/A   Clear
9:15 AM 55.4 °F - 17.6 °F 23% 29.99 in 10.0 mi Calm Calm - N/A   Clear
10:15 AM 62.6 °F - 19.4 °F 19% 29.98 in 10.0 mi NW 5.8 mph - N/A   Clear
10:35 AM 62.6 °F - 17.6 °F 18% 29.98 in 10.0 mi NW 9.2 mph - N/A   Clear
10:55 AM 64.4 °F - 19.4 °F 18% 29.98 in 10.0 mi West 10.4 mph - N/A   Clear
11:15 AM 68.0 °F - 19.4 °F 16% 29.97 in 10.0 mi West 8.1 mph 16.1 mph N/A   Clear
11:35 AM 68.0 °F - 19.4 °F 16% 29.97 in 10.0 mi West 10.4 mph 18.4 mph N/A   Clear
11:55 AM 68.0 °F - 19.4 °F 16% 29.95 in 10.0 mi West 17.3 mph 20.7 mph N/A   Clear
12:15 PM 68.0 °F - 19.4 °F 16% 29.95 in 10.0 mi WSW 11.5 mph 20.7 mph N/A   Clear
12:35 PM 69.8 °F - 19.4 °F 15% 29.94 in 10.0 mi WNW 16.1 mph 26.5 mph N/A   Clear
12:55 PM 69.8 °F - 19.4 °F 15% 29.92 in 10.0 mi West 11.5 mph 21.9 mph N/A   Clear
1:35 PM 69.8 °F - 19.4 °F 15% 29.91 in 10.0 mi West 16.1 mph 23.0 mph N/A   Clear
2:35 PM 71.6 °F - 17.6 °F 13% 29.87 in 10.0 mi West 15.0 mph 24.2 mph N/A   Clear
3:15 PM 69.8 °F - 15.8 °F 13% 29.86 in 10.0 mi West 17.3 mph 23.0 mph N/A   Clear
3:35 PM 69.8 °F - 17.6 °F 14% 29.86 in 10.0 mi West 16.1 mph 21.9 mph N/A   Clear
3:55 PM 69.8 °F - 15.8 °F 13% 29.86 in 10.0 mi WSW 18.4 mph 27.6 mph N/A   Clear
4:15 PM 69.8 °F - 17.6 °F 14% 29.86 in 10.0 mi WSW 13.8 mph 23.0 mph N/A   Clear
4:35 PM 69.8 °F - 14.0 °F 12% 29.85 in 10.0 mi WSW 19.6 mph 27.6 mph N/A   Clear
5:15 PM 68.0 °F - 12.2 °F 12% 29.84 in 10.0 mi WSW 15.0 mph 23.0 mph N/A   Clear
5:35 PM 68.0 °F - 12.2 °F 12% 29.84 in 10.0 mi SW 15.0 mph 23.0 mph N/A   Clear
5:55 PM 66.2 °F - 12.2 °F 12% 29.85 in 10.0 mi WSW 10.4 mph 18.4 mph N/A   Clear
6:15 PM 64.4 °F - 8.6 °F 11% 29.85 in 10.0 mi WSW 9.2 mph - N/A   Clear
6:35 PM 62.6 °F - 10.4 °F 13% 29.85 in 10.0 mi SW 12.7 mph - N/A   Clear
6:55 PM 62.6 °F - 10.4 °F 13% 29.85 in 10.0 mi WSW 11.5 mph - N/A   Clear
7:15 PM 62.6 °F - 10.4 °F 13% 29.85 in 10.0 mi WSW 11.5 mph - N/A   Clear
7:35 PM 62.6 °F - 10.4 °F 13% 29.86 in 10.0 mi WSW 10.4 mph 18.4 mph N/A   Clear
7:55 PM 62.6 °F - 10.4 °F 13% 29.86 in 10.0 mi WSW 12.7 mph - N/A   Clear
8:15 PM 60.8 °F - 10.4 °F 14% 29.87 in 10.0 mi West 9.2 mph - N/A   Clear
8:35 PM 59.0 °F - 10.4 °F 15% 29.87 in 10.0 mi West 10.4 mph - N/A   Clear
8:55 PM 59.0 °F - 12.2 °F 16% 29.88 in 10.0 mi West 11.5 mph - N/A   Clear
9:35 PM 55.4 °F - 12.2 °F 18% 29.89 in 10.0 mi WNW 11.5 mph - N/A   Clear
10:15 PM 53.6 °F - 14.0 °F 21% 29.90 in 10.0 mi West 11.5 mph - N/A   Clear
10:35 PM 51.8 °F - 14.0 °F 22% 29.91 in 10.0 mi West 10.4 mph - N/A   Clear
10:55 PM 51.8 °F - 15.8 °F 24% 29.91 in 10.0 mi West 11.5 mph - N/A   Clear
11:15 PM 53.6 °F - 17.6 °F 24% 29.91 in 10.0 mi West 10.4 mph - N/A   Clear
11:35 PM 51.8 °F - 15.8 °F 24% 29.92 in 10.0 mi West 8.1 mph - N/A   Clear